sat.trackr.live / text

‹ back to catalog

STARLINK-30508

NORAD 57979 · 2023-151R

PAYLOAD ACTIVE UNKNOWN

§ Identity

Operator
Country
US
Launch date
2023-09-30
Launch site
AFETR
Launch vehicle
Mass (kg)
RCS (m²)

Purposes: comms

External: N2YO · Heavens-Above · Gunter

§ Orbital elements

Epoch: 2026-05-24T17:52:43.032000Z

Period
94.27 min
Inclination
43.0000°
Eccentricity
0.0001086
Mean motion
15.27573103 rev/d
Perigee alt
482.3 km
Apogee alt
483.8 km
Semi-major
6,861.2 km
B*
-1.8503e-6
RAAN
281.2797°
Arg perigee
278.4119°
Mean anomaly
81.6609°
Rev number
14,722

§ Raw data

STARLINK-305081 57979U 23151R   26144.74494250 -.00000313  00000+0 -18503-5 0  99912 57979  43.0000 281.2797 0001086 278.4119  81.6609 15.27573103147229

JSON: /api/v1/satellites/57979 · /tle

For live sub-satellite position, see the globe view (requires WebGL).

§ Visibility from observer

Set your observer location to see the next 7 days of passes ≥ 10°. The values pass through the URL so the page stays shareable.

No JS? Fill the form by hand. The geolocation button needs JavaScript.